Location: Newark
(44.3100°N, 0.7769°W)
Time: 02:41:13
(UTC+00:00)

Envisat - Pass Details

Date: 24 November 2019
Orbit: 764 x 766 km, 98.1° (Epoch: 13 December)

Event Time Altitude Azimuth Distance (km) Brightness Sun altitude
Rises 17:29:45 0° 151° (SSE) 3,220 6.1 -10.8°
Reaches altitude 10° 17:32:05 10° 146° (SE) 2,298 5.3 -11.2°
Maximum altitude 17:37:00 52° 71° (ENE) 949 3.1 -12.0°
Drops below altitude 10° 17:41:55 10° 356° (N) 2,313 5.4 -12.9°
Sets 17:44:17 0° 352° (N) 3,243 6.2 -13.3°
